Terug naar catalogus

CZ-6A DEB

ActiefSSO
NORAD 54971·DEBRIS·🇨🇳 China

Gelanceerd Nov 11, 2022 vanaf Taiyuan Satellite Launch Center

Loading…

Volgende Passages (komende 24 uur)

TLE

VersSource: Space-Track

Epoch: Sep 14, 2026, 11:02 UTC

1 54971U 22151TL  26257.46028498  .00000038  00000-0  48458-4 0  9994
2 54971  98.8880 250.0048 0067828 121.5489 239.2326 14.05827595196705

Volg CZ-6A DEB in realtime met AllMySat

Download on the App Store